COSMOS 2251 DEB, 36379

Orbit data source: Space-Track

COSMOS 2251 DEB, 36379 is space debris in LEO originally from a launch on Wed, 16 Jun 1993 UTC launched from the Plesetsk Missile And Space Complex (PKMTR). The debris from Iridium 33, an American commercial communications satellite, has been tracked extensively since its accidental collision with the defunct Russian satellite Cosmos 2251 in 2009. This event, occurring at high speed in low Earth orbit (LEO), generated thousands of pieces of space debris, significantly increasing the risk of further collisions. The Iridium 33 debris cloud has impacted space traffic management and orbital debris mitigation strategies, making it a subject of ongoing study in space situational awareness.

Loading next visibility...
Identifier
36379, 1993-036AZG
Orbit
LEO
Country
Flag of CISCIS
Related business
Manufacturer
Unknown
Mission
Spacecraft
Bus & Motor
Unknown
Mass
Unknown
Launch date (UTC)
1993-06-16 (33 years ago)
Launch vehicle
Unknown
Launch site
Plesetsk Missile And Space Complex (PKMTR)
Object type
Payload
Rocket body
Debris
Shape & HBR
Unknown shape, 0.1 m
Radar Cross Section
Small (<0.1 m²)

Expand to show TLE details & history
Last TLE update: 3 days ago

TLE from 3 days ago
0 COSMOS 2251 DEB
1 36379U 93036AZG 26205.90777792  .00000443  00000-0  15826-3 0  9998
2 36379  74.0105 254.5099 0047171 329.3391 205.9518 14.36405935680465
Epoch: 2026-07-24T21:47Z
TLE epoch observation values (Epoch: 2026-07-24T21:47:12.012Z)
Latitude
4.67081°
Longitude
163.74779°
Altitude
802.879 km
Speed
7.437 km/s
True Right ascension
04h 52m 42s
True Declination
4° 38' 35"
Sunlit
Object was in daylight at epoch
Visualization orbit readout
Latitude
Unknown
Longitude
Unknown
Altitude
Unknown
Speed
Unknown
Apparent Right ascension
Unknown
Apparent Declination
Unknown
Sunlit
N/A
Visualization observer readout
Local Sidereal Time
09:34:31
Azimuth
Unknown
Elevation
Unknown
Doppler factor
Unknown
Orbital elements
Apogee altitude
801.733 km
Perigee altitude
734.315 km
Semi-major axis
7,146.161 km
Eccentricity
0.00472
Inclination
74.0105°
RAAN
254.5099°
Arg. of periapsis
329.3391°
True anomaly
205.7165°
Mean anomaly
205.9518°
Eccentric anomaly
205.83403°
Mean motion
3.59281 °/min
Orbital period
100.2 mins
BSTAR
0.00015826
Loading maneuver chart data...
Computing Atmospheric mass density...

Documentation

Showing up to 5 results
|